Home   Weather   Santiago de Cuba   Past weeks

Flag for Cuba Past Weather in Santiago de Cuba, Cuba — Yesterday and Last 2 Weeks

Now
77 °F

Passing clouds.


Feels Like: 79 °F
Forecast: 73 / 80 °F
Wind: 16 mph from South

Location: Santiago De Cuba - Oriente

Current Time: Feb 23, 2017 at 4:30:19 am

Latest Report: Feb 23, 2017 at 3:50 am


Visibility: 6 mi

Pressure: 29.74 "Hg

Humidity: 69%

Dew Point: 66 °F

Location of Santiago de CubaLocation

Past Weather in Santiago de Cuba — Graph

°F

Santiago de Cuba Temperature Yesterday

Maximum temperature yesterday: 81 °F (at 1:50 pm)
Minimum temperature yesterday: 66 °F (at 4:51 am)
Average temperature yesterday: 75 °F

High & Low Weather Summary for the Past Weeks

 TemperatureHumidityPressure
High91 °F (Feb 10, 12:50 pm)94% (Feb 8, 5:51 am)30.18 "Hg (Feb 8, 5:51 am)
Low66 °F (Feb 14, 5:51 am)26% (Feb 10, 12:50 pm)29.74 "Hg (Feb 23, 2:50 am)
Average77 °F66%30.03 "Hg
* Reported Feb 8 2:50 am — Feb 23 2:50 am, Santiago de Cuba, Weather by CustomWeather, © 2017

Note: Actual official high and low records may vary slightly from our data, if they occured in-between our weather recording intervals... More about our weather records

Advertising

Santiago de Cuba Weather History for the Previous 24 Hours

Scroll right to see more
 ConditionsComfort  
Time TempWeatherWind HumidityBarometerVisibility
2:50 am
Thu, Feb 23
77 °FPassing clouds.18 mph69%29.74 "Hg6 mi
1:50 am77 °FPassing clouds.16 mph65%29.77 "Hg6 mi
12:51 am77 °FPassing clouds.12 mph65%29.80 "Hg6 mi
11:52 pm
Wed, Feb 22
77 °FPassing clouds.12 mph65%29.83 "Hg6 mi
10:51 pm77 °FPassing clouds.12 mph61%29.83 "Hg6 mi
9:53 pm77 °FPassing clouds.9 mph65%29.86 "Hg6 mi
8:52 pm77 °FPassing clouds.9 mph61%29.83 "Hg6 mi
7:52 pm77 °FPassing clouds.7 mph57%29.83 "Hg6 mi
6:52 pm77 °FPassing clouds.6 mph61%29.83 "Hg6 mi
5:53 pm77 °FScattered clouds.7 mph65%29.80 "HgN/A
4:50 pm79 °FScattered clouds.8 mph61%29.80 "Hg6 mi
3:50 pm79 °FScattered clouds.9 mph61%29.80 "HgN/A
2:50 pm81 °FScattered clouds.13 mph58%29.80 "HgN/A
1:50 pm81 °FScattered clouds.14 mph58%29.83 "HgN/A
12:50 pm79 °FScattered clouds.13 mph58%29.86 "HgN/A
11:50 am79 °FScattered clouds.12 mph58%29.86 "HgN/A
10:50 am79 °FPassing clouds.12 mph51%29.89 "HgN/A
9:51 am79 °FPassing clouds.7 mph54%29.92 "HgN/A
8:50 am79 °FPassing clouds.3 mph51%29.89 "HgN/A
7:50 am72 °FPassing clouds.5 mph65%29.89 "HgN/A
6:50 am66 °FPassing clouds.6 mph78%29.89 "Hg6 mi
5:51 am66 °FPassing clouds.6 mph78%29.86 "Hg6 mi
4:51 am66 °FPassing clouds.6 mph78%29.86 "Hg6 mi
Weather by CustomWeather, © 2017

See weather overviewHow to use our weather pages